Regional Weather Roundup
Issued by NWS Newport/Morehead, NC

Current Version | Previous Version | Graphics & Text | Print | Product List | Glossary Off
Versions: 1 2 3 4 5 6 7 8 9 10 11 12 13 14 15 16 17 18 19 20 21 22 23 24 25 26 27 28 29 30 31 32 33 34 35 36 37 38 39 40 41 42 43 44 45 46 47 48 49 50

145
ASUS42 KMHX 250713
RWRMHX
WEATHER ROUNDUP FOR EASTERN NORTH CAROLINA
NATIONAL WEATHER SERVICE NEWPORT/MOREHEAD CITY NC
300 AM EDT SAT MAR 25 2017

NOTE: "FAIR" INDICATES FEW OR NO CLOUDS BELOW 12,000 FEET
WITH NO SIGNIFICANT WEATHER AND/OR OBSTRUCTIONS TO VISIBILITY

NCZ015>017-031-032-045>047-102-103-250800-
NORTH COAST

CITY           SKY/WX    TMP DP  RH WIND       PRES   REMARKS
EDENTON        CLEAR     58  50  75 SW8       30.33F
ELIZABETH CITY CLEAR     56  49  77 SW13      30.32S
KITTY HAWK     NOT AVBL
MANTEO         CLEAR     56  50  80 SW8       30.34S

$$

NCZ045>047-081-094-103-104-250800-
CENTRAL COAST

CITY           SKY/WX    TMP DP  RH WIND       PRES   REMARKS
FRISCO         CLEAR     62  52  69 W10       30.36S

$$

NCZ095-097-098-100-101-250800-
SOUTHERN COAST

CITY           SKY/WX    TMP DP  RH WIND       PRES   REMARKS
BEAUFORT       PTCLDY    59  53  80 SW8       30.36F
CEDAR ISLAND   NOT AVBL
JACKSONVILLE   CLEAR     57  51  80 SW6       30.36S
PINEY ISLAND   SUNNY    N/A N/A N/A SW7       30.35F
WILMINGTON     CLOUDY    51  49  92 CALM      30.36F


$$

NCZ011>013-027>030-043-044-078>080-089-090>093-098-250800-
COASTAL PLAIN

CITY           SKY/WX    TMP DP  RH WIND       PRES   REMARKS
AHOSKIE          N/A     55  49  80 SW3       30.32S
CLINTON        CLOUDY    55  50  85 CALM      30.35F
ELIZABETHTOWN  CLOUDY    54  50  86 S3        30.35F
GOLDSBORO      CLOUDY    56  52  86 SW3       30.33F
GREENVILLE     CLOUDY    55  50  82 SW6       30.34S
HAVELOCK       CLEAR     55  49  80 SW3       30.37S
KENANSVILLE    CLOUDY    54  48  82 CALM      30.35F
KINSTON        PTCLDY    56  50  81 SW7       30.35F
NEW BERN       CLEAR     55  50  83 SW3       30.37S
RICHLANDS      CLOUDY    52  49  89 S5        30.36F
ROCKY MOUNT    CLOUDY    55  50  83 S7        30.32F
WASHINGTON     PTCLDY    56  49  77 SW6       30.35S
WHITEVILLE     CLOUDY    51  48  89 CALM      30.35F

$$

AMZ130-135-150-152-154-156-158-170-250-252-270-ANZ085-086-088-633-658-670-250800-
MARINE OBSERVATIONS

STATION/POSITION TIME  TEMP    WIND        PRES    WAVE   SWELL
                       AIR SEA DIR/SP/G            HT/PER HT/PER
                 (UTC) (F)     (DEG/KT/KT) (MB)    (FT/S) (FT/S)
CHESAPEAKE LIGHT NOT AVBL
64 E VA BEACH    0650   53 51  220/ 14/ 16 1026.3    4/ 5   2/ 9
DUCK             0648      47  220/ 10/ 13 1026.5
2 E DUCK         0700      48                N/A     2/ 7
OREGON INLET     0642      54  200/ 10/ 11 1027.3
13E OREGON INLT  NOT AVBL
HATTERAS CG      0648      54  240/ 10/ 13 1027.6
DIAMOND BUOY     0650   68 76  220/ 19/ 23 1027.7    4/ 4   2/11
CAPE LOOKOUT     0700   65     230/  9/ 12 1027.7
BEAUFORT LAB     0648      53  220/  3/  5 1027.1
30 SE NEW RVR IN 0608   66     220/ 12/ 16 1028.4
30 SE NEW RVR IN 0643      66                N/A     4/ 8
27 SE WRIGHTSVLE 0608   64 62  190/  8/ 10 1027.6
5 SE WRIGHTSVLE  0608   60 57  200/  8/ 12 1028.2
225 S CAPE HAT   0650   65 73  120/ 12/ 16 1028.8    5/11   5/11
41 SE CHARLESTON 0650   69 71  160/ 16/ 17 1026.9    5/ 7   3/ 7

$$




USA.gov is the U.S. government's official web portal to all federal, state and local government web resources and services.